Location: Meanaryar
(48.4161°N, 4.7315°W)
Time: 17:05:18
(UTC+00:00)

SJ-6B - Pass Details

Date: 18 September 2020
Orbit: 511 x 580 km, 97.6° (Epoch: 30 October)

Event Time Altitude Azimuth Distance (km) Brightness Sun altitude
Exits shadow 19:22:17 12° 129° (SE) 1,596 4.6 -10.3°
Maximum altitude 19:25:15 32° 68° (ENE) 906 3.5 -10.8°
Drops below altitude 10° 19:28:38 10° 5° (N) 1,756 5.5 -11.3°
Sets 19:30:53 0° 355° (N) 2,656 6.6 -11.7°
